Location: Digermulen
(68.3170°N, 15.0000°E)
Time: 12:14:52
(UTC+02:00)

Envisat - Visible Passes

Search period start: 19 October 2019 00:00
Search period end: 28 October 2019 23:00
Orbit: 764 x 766 km, 98.1° (Epoch: 19 October)

Date Brightness Start Highest point End Pass type
(mag) Time Alt. Az. Time Alt. Az. Time Alt. Az.
19 Oct 5.4 07:05:57 10° NNE 07:10:20 28° E 07:14:41 10° SSE visible
19 Oct 3.4 18:34:35 10° SSE 18:39:41 70° WSW 18:44:48 10° NNW visible
19 Oct 5.4 20:15:29 10° SW 20:19:36 24° W 20:23:45 10° NNW visible
20 Oct 6.0 06:29:24 10° NE 06:33:01 19° E 06:36:37 10° SE visible
20 Oct 3.0 17:57:44 10° SSE 18:02:51 81° ENE 18:07:58 10° NNW visible
20 Oct 4.7 19:37:42 10° SSW 19:42:23 36° W 19:47:05 10° NNW visible
20 Oct 6.2 21:20:52 10° W 21:22:59 12° WNW 21:25:06 10° NW visible
21 Oct 6.3 05:53:18 10° NE 05:55:33 13° ENE 05:57:48 10° E visible
21 Oct 3.9 19:00:20 10° S 19:05:19 53° WSW 19:10:20 10° NNW visible
21 Oct 5.8 20:41:59 10° WSW 20:45:31 19° WNW 20:49:03 10° NW visible
22 Oct 5.6 06:54:43 10° NNE 06:58:55 25° E 07:03:06 10° SE visible
22 Oct 3.2 18:23:16 10° SSE 18:28:23 78° WSW 18:33:32 10° NNW visible
22 Oct 5.2 20:03:52 10° SW 20:08:11 27° W 20:12:32 10° NNW visible
23 Oct 6.0 06:18:16 10° NE 06:21:34 17° ENE 06:24:51 10° ESE visible
23 Oct 3.0 17:46:30 10° SE 17:51:35 73° ENE 17:56:41 10° NNW visible
23 Oct 4.5 19:26:14 10° SSW 19:31:01 40° W 19:35:50 10° NNW visible
23 Oct 6.1 21:08:51 10° WSW 21:11:30 14° WNW 21:14:08 10° NW visible
24 Oct 6.4 05:42:29 10° NE 05:44:03 11° ENE 05:45:37 10° E visible
24 Oct 5.1 07:20:08 10° NNE 07:24:45 33° E 07:29:19 10° SSE visible
24 Oct 3.7 18:48:57 10° S 18:53:59 60° WSW 18:59:03 10° NNW visible
24 Oct 5.6 20:30:16 10° SW 20:34:03 21° W 20:37:53 10° NNW visible
25 Oct 5.8 06:43:31 10° NNE 06:47:29 22° E 06:51:27 10° SE visible
25 Oct 3.1 18:11:59 10° SSE 18:17:05 87° WSW 18:22:14 10° NNW visible
25 Oct 5.0 19:52:18 10° SSW 19:56:47 30° W 20:01:18 10° NNW visible
25 Oct 6.3 21:36:43 10° WNW 21:37:34 10° WNW 21:38:25 10° NW visible
26 Oct 6.1 06:07:10 10° NE 06:10:06 15° ENE 06:13:01 10° ESE visible
26 Oct 3.0 17:35:17 10° SE 17:40:19 66° ENE 17:45:24 10° NNW visible
26 Oct 4.2 19:14:46 10° S 19:19:40 45° W 19:24:34 10° NNW visible
26 Oct 6.0 20:56:57 10° WSW 21:00:01 16° WNW 21:03:05 10° NW visible
27 Oct 5.3 06:08:55 10° NNE 06:13:21 29° E 06:17:47 10° SSE visible
27 Oct 3.4 17:37:36 10° S 17:42:40 67° WSW 17:47:46 10° NNW visible
27 Oct 5.4 19:18:35 10° SW 19:22:37 23° W 19:26:42 10° NNW visible
28 Oct 5.9 05:32:20 10° NNE 05:36:04 20° E 05:39:46 10° SE visible
28 Oct 3.0 17:00:42 10° SSE 17:05:49 84° ENE 17:10:57 10° NNW visible
28 Oct 4.8 18:40:46 10° SSW 18:45:24 34° W 18:50:03 10° NNW visible
28 Oct 6.2 20:24:12 10° W 20:26:03 12° WNW 20:27:54 10° NW visible
